Location: Garden Park
(34.0906°N, 117.2695°W)
Time: 23:19:58
(UTC+00:00)

Hubble Space Telescope - Pass Details

Date: 15 August 2024
Orbit: 505 x 509 km, 28.5° (Epoch: 16 September)

Event Time Altitude Azimuth Distance (km) Brightness Sun altitude
Exits shadow 11:55:38 26° 214° (SW) 1,022 1.7 -15.2°
Maximum altitude 11:57:00 34° 174° (S) 851 1.6 -14.9°
Drops below altitude 10° 12:00:36 10° 109° (ESE) 1,716 4.0 -14.3°
Sets 12:02:58 0° 100° (E) 2,603 5.2 -13.8°
